Regional Weather Roundup
Issued by NWS Cleveland, OH

Home | Current Version | Previous Version | Text Only | Print | Product List | Glossary Off
Versions: 1 2 3 4 5 6 7 8 9 10 11 12 13 14 15 16 17 18 19 20 21 22 23 24 25 26 27 28 29 30 31 32 33 34 35 36 37 38 39 40 41 42 43 44 45 46 47 48 49 50

000
ASUS41 KCLE 201110
RWRCLE
OHIO REGIONAL WEATHER ROUNDUP
NATIONAL WEATHER SERVICE WILMINGTON, OH
700 AM EDT SAT SEP 20 2014

NOTE: "FAIR" INDICATES FEW OR NO CLOUDS BELOW 12,000 FEET WITH NO
SIGNIFICANT WEATHER AND/OR OBSTRUCTIONS TO VISIBILITY.

OHZ001>008-015>018-024>027-034-035-043-044-201200-
   NORTHWEST OHIO

CITY           SKY/WX    TMP DP  RH WIND       PRES   REMARKS
DEFIANCE       CLEAR     52  47  83 SW3       30.03S
FINDLAY        CLEAR     58  53  84 S10       30.04R
TOLEDO EXPRESS CLEAR     53  48  83 SW5       30.02S
TOLEDO METCALF CLEAR     53  47  79 SW6       30.04R
LIMA           CLEAR     60  54  80 S12       30.06R
$$

OHZ009>014-019>023-028>033-038-089-201200-
   NORTHEAST OHIO

CITY           SKY/WX    TMP DP  RH WIND       PRES   REMARKS
CLE-HOPKINS    PTCLDY    61  57  87 S12       30.08R
CLE-LAKEFRONT  CLEAR     61  57  87 SE15      30.05R
CUY CO. ARPT   PTCLDY    63  59  88 S16       30.07
LORAIN-ELYRIA  CLEAR     61  56  83 S8        30.07R
ASHTABULA      PTCLDY    57  55  93 S8        30.09R
AKRON-CANTON   PTCLDY    61  56  83 S13       30.10R
WOOSTER        PTCLDY    59  56  89 SW8       30.10R
MANSFIELD      PTCLDY    59  58  96 S10       30.09R
YOUNGSTOWN     MOCLDY    58  55  90 S8        30.10S
$$

OHZ042-051>053-060>062-070>072-077>081-201200-
  SOUTHWEST OHIO

CITY           SKY/WX    TMP DP  RH WIND       PRES   REMARKS
CINC-COVINGTON PTCLDY    65  60  84 S10       30.08R
CINC-LUNKEN    PTCLDY    53  53 100 CALM      30.09R FOG
HAMILTON       PTCLDY    51  51 100 CALM      30.08S FOG
DAYTON         PTCLDY    61  57  87 S9        30.08S
WRIGHT-PAT AFB CLEAR     55  53  94 SE3       30.07S
DAYTON GENERAL PTCLDY    58  56  93 S6        30.07S
WILMINGTON     MOCLDY    61  58  90 S7        30.09R
$$

OHZ036-037-039>041-045>050-054>059-063>069-073>076-082>088-201200-
  CENTRAL AND SOUTHEAST OHIO

CITY           SKY/WX    TMP DP  RH WIND       PRES   REMARKS
COLUMBUS       PTCLDY    61  57  87 CALM      30.09R
OSU AIRPORT    CLEAR     60  57  89 S8        30.09R FOG
BOLTON FIELD   PTCLDY    56  56 100 S6        30.10R FOG
RICKENBACK AFB PTCLDY    53  53  98 S3        30.09R FOG
NEWARK         PTCLDY    60  56  86 SW3       30.10R
MARION         CLEAR     56  54  93 S7        30.08R FOG
LANCASTER      PTCLDY    62  58  86 S7        30.11R
ZANESVILLE     MOCLDY    60  56  86 S7        30.11S
NEW PHILLY     PTCLDY    60  57  89 S5        30.12S
$$


USA.gov is the U.S. government's official web portal to all federal, state and local government web resources and services.